Three Rivers, MI

11:06 PM EDT on May 27, 2017 (GMT -0400)
Three Rivers Municipal-Haines

Weather History for KHAI - December, 2007

Change the Weather History Date:

Monday, December 17, 2007

  Actual Average Record
Temperature  
Mean Temperature 24 °F -  
Max Temperature 28 °F 33 °F 62 °F (1984)
Min Temperature 19 °F 19 °F -10 °F (1951)
Degree Days  
Heating Degree Days 42    
Moisture  
Dew Point 18 °F    
Average Humidity 85    
Maximum Humidity 93    
Minimum Humidity 68    
Precipitation  
Precipitation 0.00 in - - ()
Sea Level Pressure  
Sea Level Pressure 30.15 in    
Wind  
Wind Speed 10 mph (SW)    
Max Wind Speed 16 mph    
Max Gust Speed 22 mph    
Visibility 6 miles    
Events Snow    
Averages and records for this station are not official NWS values.
T = Trace of Precipitation, MM = Missing Value Source: NWS Daily Summary

Daily Weather History Graph

Daily Weather History Graph

Search for Another Location

Airport or City:

Trip Planner

Search our weather history database for the weather conditions in past years. The results will help you decide how hot, cold, wet, or windy it might be!

Date:

Astronomy

Dec. 17, 2007 Rise Set
Actual Time 8:04 AM EST 5:12 PM EST
Civil Twilight 7:32 AM EST 5:44 PM EST
Nautical Twilight 6:57 AM EST 6:19 PM EST
Astronomical Twilight 6:23 AM EST 6:53 PM EST
Moon 12:45 PM EST (12/17) 12:24 AM EST (12/17)
Length of Visible Light 10h 11m
Length of Day
9h 07m
First Quarter, 53% of the Moon is Illuminated
Dec 17
First Quarter
Dec 23
Full
Dec 31
Last Quarter
Jan 8
New
Jan 15
First Quarter

Hourly Weather History & Observations

Time (EST) Temp. Windchill Dew Point Humidity Pressure Visibility Wind Dir Wind Speed Gust Speed Precip Events Conditions
12:17 AM 26.6 °F 17.5 °F 23.0 °F 86% 30.03 in 4.0 mi West 9.2 mph - N/A Snow Light Snow
12:37 AM 28.4 °F 19.1 °F 23.0 °F 80% 30.03 in 5.0 mi West 10.4 mph - N/A Snow Light Snow
12:55 AM 26.6 °F 17.5 °F 23.0 °F 86% 30.03 in 10.0 mi West 9.2 mph - N/A Snow Light Snow
1:17 AM 28.4 °F 20.4 °F 23.0 °F 80% 30.04 in 10.0 mi West 8.1 mph - N/A Snow Light Snow
1:37 AM 26.6 °F 16.2 °F 21.2 °F 80% 30.04 in 10.0 mi West 11.5 mph - N/A   Overcast
1:55 AM 26.6 °F 15.7 °F 21.2 °F 80% 30.05 in 10.0 mi West 12.7 mph - N/A   Overcast
2:17 AM 26.6 °F 15.2 °F 21.2 °F 80% 30.06 in 10.0 mi West 13.8 mph - N/A   Overcast
2:37 AM 26.6 °F 14.3 °F 19.4 °F 74% 30.06 in 10.0 mi West 16.1 mph 21.9 mph N/A   Overcast
2:55 AM 26.6 °F 15.2 °F 19.4 °F 74% 30.07 in 10.0 mi West 13.8 mph 21.9 mph N/A   Overcast
3:17 AM 26.6 °F 16.8 °F 21.2 °F 80% 30.07 in 10.0 mi West 10.4 mph - N/A   Overcast
3:37 AM 26.6 °F 19.1 °F 21.2 °F 80% 30.08 in 10.0 mi WSW 6.9 mph - N/A   Overcast
4:17 AM 23.0 °F 13.9 °F 19.4 °F 86% 30.08 in 10.0 mi SW 8.1 mph - N/A   Overcast
4:37 AM 23.0 °F 12.4 °F 19.4 °F 86% 30.09 in 7.0 mi SW 10.4 mph - N/A   Overcast
4:55 AM 21.2 °F 11.7 °F 19.4 °F 93% 30.09 in 7.0 mi WSW 8.1 mph - N/A   Overcast
5:17 AM 21.2 °F 10.1 °F 19.4 °F 93% 30.10 in 7.0 mi SW 10.4 mph - N/A   Overcast
5:37 AM 21.2 °F 10.1 °F 19.4 °F 93% 30.10 in 7.0 mi SW 10.4 mph - N/A Snow Light Snow
5:55 AM 21.2 °F 10.9 °F 19.4 °F 93% 30.11 in 5.0 mi WSW 9.2 mph - N/A Snow Light Snow
6:16 AM 21.2 °F 11.7 °F 19.4 °F 93% 30.11 in 7.0 mi SW 8.1 mph - N/A   Overcast
6:36 AM 21.2 °F 11.7 °F 17.6 °F 86% 30.12 in 5.0 mi SW 8.1 mph - N/A Snow Light Snow
7:17 AM 21.2 °F 12.6 °F 17.6 °F 86% 30.13 in 7.0 mi WSW 6.9 mph - N/A   Overcast
7:37 AM 21.2 °F 12.6 °F 17.6 °F 86% 30.14 in 7.0 mi WSW 6.9 mph - N/A   Overcast
7:55 AM 21.2 °F 11.7 °F 17.6 °F 86% 30.14 in 7.0 mi WSW 8.1 mph - N/A   Overcast
8:17 AM 21.2 °F 11.7 °F 17.6 °F 86% 30.14 in 5.0 mi SW 8.1 mph - N/A   Overcast
8:37 AM 21.2 °F 11.7 °F 17.6 °F 86% 30.15 in 5.0 mi SW 8.1 mph - N/A   Overcast
8:55 AM 21.2 °F 13.6 °F 17.6 °F 86% 30.16 in 3.0 mi SW 5.8 mph - N/A Snow Light Snow
9:17 AM 21.2 °F 12.6 °F 17.6 °F 86% 30.16 in 1.5 mi SW 6.9 mph - N/A Snow Light Snow
9:37 AM 21.2 °F 11.7 °F 17.6 °F 86% 30.17 in 2.5 mi SW 8.1 mph - N/A Snow Light Snow
9:55 AM 21.2 °F 10.1 °F 17.6 °F 86% 30.18 in 1.8 mi SW 10.4 mph - N/A Snow Light Snow
10:16 AM 21.2 °F 10.9 °F 17.6 °F 86% 30.19 in 2.0 mi WSW 9.2 mph - N/A Snow Light Snow
10:37 AM 21.2 °F 10.9 °F 17.6 °F 86% 30.19 in 2.0 mi SSW 9.2 mph - N/A Snow Light Snow
10:55 AM 21.2 °F 10.9 °F 15.8 °F 80% 30.19 in 3.0 mi SSW 9.2 mph - N/A Snow Light Snow
11:17 AM 21.2 °F 10.1 °F 15.8 °F 80% 30.19 in 4.0 mi SW 10.4 mph - N/A   Haze
11:37 AM 21.2 °F 10.9 °F 14.0 °F 74% 30.20 in 5.0 mi SW 9.2 mph - N/A   Haze
11:55 AM 21.2 °F 10.1 °F 14.0 °F 74% 30.20 in 7.0 mi SSW 10.4 mph - N/A   Scattered Clouds
12:17 PM 21.2 °F 12.6 °F 14.0 °F 74% 30.18 in 7.0 mi WSW 6.9 mph - N/A   Scattered Clouds
12:37 PM 23.0 °F 14.7 °F 14.0 °F 68% 30.18 in 7.0 mi SW 6.9 mph - N/A   Clear
12:55 PM 23.0 °F 11.1 °F 15.8 °F 74% 30.17 in 7.0 mi SSW 12.7 mph - N/A   Scattered Clouds
1:16 PM 21.2 °F 8.3 °F 15.8 °F 80% 30.17 in 7.0 mi SSW 13.8 mph - N/A   Scattered Clouds
1:36 PM 21.2 °F 10.1 °F 15.8 °F 80% 30.17 in 5.0 mi SSW 10.4 mph - N/A   Haze
1:55 PM 21.2 °F 8.3 °F 15.8 °F 80% 30.17 in 7.0 mi SSW 13.8 mph - N/A   Scattered Clouds
2:17 PM 21.2 °F 8.9 °F 15.8 °F 80% 30.16 in 7.0 mi South 12.7 mph - N/A   Clear
2:37 PM 21.2 °F 7.8 °F 15.8 °F 80% 30.17 in 7.0 mi SSW 15.0 mph - N/A   Scattered Clouds
2:55 PM 21.2 °F 10.1 °F 15.8 °F 80% 30.17 in 5.0 mi SSW 10.4 mph - N/A   Haze
3:17 PM 21.2 °F 9.5 °F 17.6 °F 86% 30.17 in 5.0 mi SSW 11.5 mph - N/A   Haze
3:37 PM 21.2 °F 9.5 °F 17.6 °F 86% 30.17 in 5.0 mi SSW 11.5 mph - N/A   Haze
3:55 PM 21.2 °F 11.7 °F 17.6 °F 86% 30.17 in 5.0 mi SSW 8.1 mph - N/A   Mostly Cloudy
4:16 PM 21.2 °F 12.6 °F 17.6 °F 86% 30.18 in 5.0 mi SSW 6.9 mph - N/A   Haze
4:36 PM 21.2 °F 10.1 °F 15.8 °F 80% 30.17 in 5.0 mi SW 10.4 mph - N/A   Haze
4:55 PM 21.2 °F 11.7 °F 15.8 °F 80% 30.18 in 5.0 mi SSW 8.1 mph - N/A   Haze
5:16 PM 19.4 °F 7.9 °F 15.8 °F 86% 30.18 in 5.0 mi SSW 10.4 mph - N/A   Clear
5:36 PM 19.4 °F 7.2 °F 17.6 °F 93% 30.18 in 7.0 mi SW 11.5 mph 17.3 mph N/A   Mostly Cloudy
5:55 PM 19.4 °F 9.5 °F 17.6 °F 93% 30.18 in 7.0 mi SSW 8.1 mph - N/A   Overcast
6:16 PM 19.4 °F 9.5 °F 17.6 °F 93% 30.18 in 7.0 mi SW 8.1 mph - N/A   Overcast
6:36 PM 19.4 °F 8.6 °F 17.6 °F 93% 30.18 in 7.0 mi SSW 9.2 mph - N/A   Mostly Cloudy
6:55 PM 19.4 °F 6.6 °F 17.6 °F 93% 30.19 in 7.0 mi SW 12.7 mph - N/A   Mostly Cloudy
7:16 PM 21.2 °F 8.9 °F 19.4 °F 93% 30.19 in 7.0 mi SSW 12.7 mph - N/A   Overcast
7:36 PM 21.2 °F 10.1 °F 19.4 °F 93% 30.19 in 7.0 mi SSW 10.4 mph - N/A   Overcast
7:55 PM 21.2 °F 9.5 °F 19.4 °F 93% 30.19 in 7.0 mi SSW 11.5 mph 18.4 mph N/A   Overcast
8:16 PM 21.2 °F 10.1 °F 19.4 °F 93% 30.20 in 7.0 mi SSW 10.4 mph - N/A   Overcast
8:36 PM 21.2 °F 10.9 °F 19.4 °F 93% 30.19 in 7.0 mi SSW 9.2 mph - N/A   Overcast
8:55 PM 21.2 °F 10.1 °F 19.4 °F 93% 30.19 in 7.0 mi SSW 10.4 mph - N/A   Overcast
9:17 PM 21.2 °F 10.1 °F 19.4 °F 93% 30.19 in 5.0 mi SSW 10.4 mph - N/A   Overcast
9:37 PM 21.2 °F 9.5 °F 19.4 °F 93% 30.20 in 7.0 mi SSW 11.5 mph - N/A   Overcast
9:55 PM 21.2 °F 10.1 °F 19.4 °F 93% 30.20 in 7.0 mi SSW 10.4 mph - N/A   Overcast
10:17 PM 21.2 °F 10.1 °F 19.4 °F 93% 30.19 in 5.0 mi SSW 10.4 mph - N/A   Overcast
10:37 PM 21.2 °F 9.5 °F 19.4 °F 93% 30.19 in 7.0 mi SSW 11.5 mph 18.4 mph N/A   Overcast
10:55 PM 21.2 °F 8.3 °F 19.4 °F 93% 30.18 in 5.0 mi SSW 13.8 mph - N/A   Overcast
11:17 PM 21.2 °F 8.3 °F 19.4 °F 93% 30.19 in 5.0 mi SSW 13.8 mph 17.3 mph N/A   Overcast
11:36 PM 21.2 °F 8.3 °F 19.4 °F 93% 30.20 in 5.0 mi SSW 13.8 mph - N/A   Overcast
11:55 PM 21.2 °F 10.1 °F 19.4 °F 93% 30.20 in 5.0 mi SSW 10.4 mph - N/A   Overcast